Renton, WA
on Monday, December 3, 2012

Monday
Previous Day Next Day
Daily Summary
 ActualAverage (KSEA)Record (KSEA)
Temperature
Mean Temperature °F 42°F  
Max Temperature 51°F 47°F 60°F (1965)
Min Temperature 48°F 36°F 27°F (1994)
Degree Days
Heating Degree Days 16 23  
Month to date heating degree days 69  
Since 1 July heating degree days 1252  
Cooling Degree Days 0 0  
Month to date cooling degree days 0  
Year to date cooling degree days 189  
Moisture
Dew Point 44°F   
Average Humidity 82    
Maximum Humidity 87    
Minimum Humidity 71    
Precipitation
Precipitation 0.41 in 0.20 in 3.77 in (2007)
Month to date precipitation 0.60  
Year to date precipitation 32.74  
Snow
Snow 0.00 in in 1.10 in (1994)
Month to date snowfall  
Since 1 July snowfall  
Snow Depth in   
Wind
Wind Speed 5 mph   
Max Wind Speed 10 mph   
Max Gust Speed 18 mph   
Visibility 8 miles   
Events Rain   

Key: T is trace of precipitation, MM is missing value
Source: NWS Daily Summary
Time(PST)TemperatureDew PointHumidity Pressure Visibility Wind DirectionWind SpeedGust SpeedPrecipitationEvents Conditions
12:05 AM 48.2°F 42.8°F 82% 29.81 in 10.0 miles SE 4.6 mph - 0.00 in Rain Light Rain
12:27 AM 48.2°F 42.8°F 82% 29.80 in 10.0 miles SE 3.5 mph - N/A   Overcast
12:53 AM 48.9°F 43.0°F 80% 29.82 in 10.0 miles SSE 8.1 mph - 0.03 in Rain Light Rain
1:03 AM 48.2°F 42.8°F 82% 29.80 in 10.0 miles SSE 5.8 mph - 0.00 in Rain Light Rain
1:42 AM 48.2°F 44.6°F 87% 29.81 in 10.0 miles ESE 4.6 mph - 0.01 in Rain Light Rain
1:49 AM 48.2°F 44.6°F 87% 29.81 in 10.0 miles ESE 4.6 mph - 0.01 in Rain Light Rain
1:53 AM 48.0°F 44.1°F 86% 29.83 in 10.0 miles Variable 5.8 mph - 0.02 in Rain Light Rain
2:22 AM 50.0°F 42.8°F 76% 29.83 in 10.0 miles SSE 9.2 mph - 0.00 in Rain Light Rain
2:53 AM 50.0°F 43.0°F 77% 29.86 in 10.0 miles SSE 10.4 mph 18.4 mph 0.00 in   Overcast
3:53 AM 51.1°F 42.1°F 71% 29.88 in 10.0 miles SSE 9.2 mph - N/A   Overcast
4:53 AM 48.9°F 44.1°F 83% 29.89 in 4.0 miles South 3.5 mph - 0.05 in Rain Rain
5:09 AM 48.2°F 44.6°F 87% 29.88 in 2.5 miles SSE 5.8 mph - 0.08 in Rain Heavy Rain
5:23 AM 48.2°F 44.6°F 87% 29.89 in 3.0 miles WSW 3.5 mph - 0.14 in Rain Rain
5:31 AM 48.2°F 42.8°F 82% 29.89 in 2.5 miles Variable 4.6 mph - N/A Rain Rain
5:34 AM 48.2°F 44.6°F 87% 29.89 in 3.0 miles Variable 5.8 mph - 0.18 in Rain Rain
5:41 AM 48.2°F 44.6°F 87% 29.89 in 5.0 miles SE 4.6 mph - 0.19 in Rain Rain
5:53 AM 48.9°F 43.0°F 80% 29.92 in 7.0 miles Variable 6.9 mph - 0.21 in Rain Light Rain
6:53 AM 48.2°F 42.8°F 82% 29.91 in 10.0 miles SSE 8.1 mph - N/A   Overcast
7:53 AM 48.9°F 43.0°F 80% 29.95 in 10.0 miles SSE 9.2 mph - N/A   Overcast
8:53 AM 48.9°F 43.0°F 80% 29.98 in 10.0 miles SSE 10.4 mph - N/A   Overcast
9:40 AM 48.2°F 44.6°F 87% 29.98 in 10.0 miles SE 4.6 mph - 0.00 in   Overcast
9:53 AM 48.9°F 44.1°F 83% 30.00 in 10.0 miles SSE 6.9 mph - 0.00 in   Overcast
10:33 AM 50.0°F 44.6°F 82% 30.00 in 10.0 miles SSE 6.9 mph - N/A   Overcast
10:41 AM 50.0°F 44.6°F 82% 30.01 in 10.0 miles SSE 6.9 mph - N/A   Overcast
10:53 AM 50.0°F 44.6°F 82% 30.01 in 10.0 miles SE 6.9 mph - N/A   Overcast
11:18 AM 50.0°F 44.6°F 82% 30.01 in 10.0 miles Variable 5.8 mph - N/A   Overcast
11:53 AM 50.0°F 44.1°F 80% 30.03 in 10.0 miles Variable 4.6 mph - N/A   Overcast
12:43 PM 50.0°F 44.6°F 82% 30.00 in 10.0 miles ESE 5.8 mph - 0.00 in Rain Light Rain
12:53 PM 50.0°F 45.0°F 83% 30.01 in 10.0 miles East 6.9 mph - 0.00 in   Overcast
1:26 PM 50.0°F 44.6°F 82% 29.98 in 6.0 miles SE 3.5 mph - 0.01 in Rain Light Rain
1:45 PM 50.0°F 44.6°F 82% 29.98 in 4.0 miles ESE 6.9 mph - 0.02 in Rain Light Rain
1:53 PM 50.0°F 45.0°F 83% 29.99 in 3.0 miles East 5.8 mph - 0.02 in Rain Light Rain
2:53 PM 50.0°F 45.0°F 83% 29.97 in 10.0 miles ESE 4.6 mph - 0.01 in Rain Light Rain
3:03 PM 50.0°F 46.4°F 87% 29.96 in 2.5 miles SE 5.8 mph - 0.01 in Rain Light Rain
3:19 PM 50.0°F 46.4°F 87% 29.95 in 6.0 miles Variable 3.5 mph - 0.02 in Rain Light Rain
3:53 PM 50.0°F 45.0°F 83% 29.96 in 7.0 miles SSE 4.6 mph - 0.03 in Rain Light Rain
4:53 PM 48.9°F 45.0°F 86% 29.93 in 10.0 miles Calm Calm - 0.01 in Rain Light Rain
5:53 PM 48.9°F 45.0°F 86% 29.92 in 10.0 miles SE 4.6 mph - 0.01 in Rain Light Rain
6:53 PM 48.9°F 44.1°F 83% 29.90 in 10.0 miles Calm Calm - 0.01 in   Overcast
7:53 PM 50.0°F 44.1°F 80% 29.87 in 10.0 miles Variable 3.5 mph - 0.00 in Rain Light Rain
8:53 PM 50.0°F 44.1°F 80% 29.82 in 10.0 miles SE 3.5 mph - 0.00 in Rain Light Rain
9:53 PM 51.1°F 43.0°F 74% 29.76 in 10.0 miles Calm Calm - 0.01 in   Overcast
10:53 PM 50.0°F 44.1°F 80% 29.70 in 10.0 miles South 3.5 mph - 0.00 in Rain Light Rain
11:53 PM 50.0°F 43.0°F 77% 29.66 in 10.0 miles Calm Calm - 0.00 in Rain Light Rain
Moon Phase
Dec. 03 Dec. 06 Dec. 13 Dec. 20 Dec. 28
Sunrise:07:38 AM (PST) Moon Rise:09:23 PM (PST)12/3
Sunset:04:18 PM (PST) Moon Set:10:54 AM (PST)12/3

Copyright © 2014 The Weather Underground, Inc.